This is the latest recevied weather packets stored in our database for station/object KR4CWL-13. If no packets are shown the sender has not sent any weather packets the latest 10 day(s).
| Time | Temp. | Humidity | Pressure | Rain* | Wind** | Luminosity | Snow |
|---|---|---|---|---|---|---|---|
| 1777784640 | 6.67° C | 95% | 1008.1 hPa | 0 mm | - | - | - |
| 1777784040 | 6.67° C | 95% | 1008.1 hPa | 0 mm | - | - | - |
| 1777783440 | 7.22° C | 93% | 1008.1 hPa | 0 mm | - | - | - |
| 1777782840 | 7.22° C | 93% | 1008.1 hPa | 0 mm | - | - | - |
| 1777782240 | 7.22° C | 93% | 1008.1 hPa | 0 mm | - | - | - |
| 1777781640 | 7.78° C | 93% | 1008.1 hPa | 0 mm | - | - | - |
| 1777781040 | 7.78° C | 92% | 1007.8 hPa | 0 mm | - | - | - |
| 1777780440 | 7.78° C | 92% | 1007.8 hPa | 0 mm | - | - | - |
| 1777779840 | 7.78° C | 91% | 1007.8 hPa | 0 mm | - | - | - |
| 1777779240 | 7.78° C | 92% | 1007.8 hPa | 0 mm | - | - | - |
| 1777778640 | 7.78° C | 93% | 1007.4 hPa | 0 mm | - | - | - |
| 1777778040 | 7.22° C | 96% | 1007.4 hPa | 0 mm | - | - | - |
| 1777777440 | 7.22° C | 98% | 1007.4 hPa | 0 mm | - | - | - |
| 1777776840 | 6.67° C | 99% | 1007.4 hPa | 0 mm | - | - | - |
| 1777776239 | 6.67° C | 99% | 1007.1 hPa | 0 mm | - | - | - |
| 1777775639 | 7.22° C | 98% | 1007.1 hPa | 0 mm | - | - | - |
| 1777775039 | 7.22° C | 97% | 1006.8 hPa | 0 mm | - | - | - |
| 1777774439 | 7.22° C | 95% | 1006.8 hPa | 0 mm | - | - | - |
| 1777773839 | 7.78° C | 95% | 1006.8 hPa | 0 mm | - | - | - |
| 1777773239 | 7.78° C | 96% | 1006.8 hPa | 0 mm | - | - | - |
| 1777772639 | 7.78° C | 95% | 1006.4 hPa | 0 mm | - | - | - |
| 1777772039 | 7.78° C | 95% | 1006.1 hPa | 0 mm | - | - | - |
| 1777771439 | 8.33° C | 93% | 1006.1 hPa | 0 mm | - | - | - |
| 1777770839 | 8.89° C | 92% | 1006.1 hPa | 0 mm | - | - | - |
| 1777770239 | 9.44° C | 91% | 1006.1 hPa | 0 mm | - | - | - |
* Rain since midnight (hover to see other rain measurements)
** Current wind speed in m/s (hover to see current wind gust speed)